Roseau, MN

8:54 PM CST on December 11, 2017 (GMT -0600)
Roseau Municipal-Billberg

Weather History for KROX - December, 2012

Change the Weather History Date:

Sunday, December 16, 2012

  Actual Average Record
Temperature  
Mean Temperature 19 °F -  
Max Temperature 23 °F 21 °F 43 °F (1962)
Min Temperature 15 °F 0 °F -37 °F (1963)
Degree Days  
Heating Degree Days 46    
Moisture  
Dew Point 17 °F    
Average Humidity 84    
Maximum Humidity 86    
Minimum Humidity 79    
Precipitation  
Precipitation 0.00 in - - ()
Sea Level Pressure  
Sea Level Pressure 29.77 in    
Wind  
Wind Speed 11 mph (NNW)    
Max Wind Speed 17 mph    
Max Gust Speed 21 mph    
Visibility 9 miles    
Events      
Averages and records for this station are not official NWS values.
T = Trace of Precipitation, MM = Missing Value Source: NWS Daily Summary

Daily Weather History Graph

Daily Weather History Graph

Search for Another Location

Airport or City:

Trip Planner

Search our weather history database for the weather conditions in past years. The results will help you decide how hot, cold, wet, or windy it might be!

Date:

Astronomy

Dec. 16, 2012 Rise Set
Actual Time 8:10 AM CST 4:26 PM CST
Civil Twilight 7:33 AM CST 5:03 PM CST
Nautical Twilight 6:53 AM CST 5:44 PM CST
Astronomical Twilight 6:14 AM CST 6:22 PM CST
Moon 10:29 AM CST (12/16) 8:59 PM CST (12/16)
Length of Visible Light 9h 30m
Length of Day
8h 15m
Waxing Crescent, 16% of the Moon is Illuminated
Dec 16
Waxing Crescent
Dec 19
First Quarter
Dec 28
Full
Jan 4
Last Quarter
Jan 11
New

Hourly Weather History & Observations

Time (CST) Temp. Windchill Dew Point Humidity Pressure Visibility Wind Dir Wind Speed Gust Speed Precip Events Conditions
12:14 AM 15.8 °F 3.4 °F 12.2 °F 86% 29.70 in 7.0 mi NNW 10.4 mph - N/A   Overcast
12:55 AM 17.6 °F 5.7 °F 12.2 °F 79% 29.70 in 10.0 mi NNW 10.4 mph - N/A   Overcast
1:14 AM 17.6 °F 4.3 °F 14.0 °F 86% 29.70 in 10.0 mi NNW 12.7 mph - N/A   Overcast
1:34 AM 19.4 °F 6.0 °F 14.0 °F 80% 29.70 in 10.0 mi NNW 13.8 mph - N/A   Overcast
1:55 AM 19.4 °F 4.5 °F 15.8 °F 86% 29.70 in 10.0 mi NNW 17.3 mph - N/A   Scattered Clouds
2:14 AM 19.4 °F 4.5 °F 15.8 °F 86% 29.70 in 10.0 mi NNW 17.3 mph - N/A   Scattered Clouds
2:55 AM 19.4 °F 5.0 °F 15.8 °F 86% 29.72 in 10.0 mi North 16.1 mph - N/A   Clear
3:14 AM 19.4 °F 5.0 °F 15.8 °F 86% 29.72 in 10.0 mi NNW 16.1 mph - N/A   Clear
3:34 AM 19.4 °F 6.6 °F 15.8 °F 86% 29.73 in 10.0 mi North 12.7 mph 18.4 mph N/A   Clear
3:55 AM 19.4 °F 4.5 °F 15.8 °F 86% 29.73 in 10.0 mi North 17.3 mph - N/A   Clear
4:14 AM 19.4 °F 5.0 °F 15.8 °F 86% 29.73 in 10.0 mi North 16.1 mph - N/A   Clear
4:34 AM 19.4 °F 4.5 °F 15.8 °F 86% 29.74 in 10.0 mi North 17.3 mph - N/A   Clear
4:55 AM 19.4 °F 4.5 °F 15.8 °F 86% 29.73 in 10.0 mi North 17.3 mph 20.7 mph N/A   Clear
5:14 AM 19.4 °F 5.5 °F 15.8 °F 86% 29.74 in 10.0 mi North 15.0 mph 20.7 mph N/A   Clear
5:34 AM 21.2 °F 7.3 °F 15.8 °F 80% 29.74 in 10.0 mi North 16.1 mph - N/A   Clear
5:55 AM 21.2 °F 9.5 °F 15.8 °F 80% 29.75 in 10.0 mi North 11.5 mph - N/A   Scattered Clouds
6:14 AM 21.2 °F 9.5 °F 17.6 °F 86% 29.75 in 10.0 mi North 11.5 mph - N/A   Mostly Cloudy
6:34 AM 21.2 °F 8.3 °F 17.6 °F 86% 29.76 in 10.0 mi North 13.8 mph - N/A   Mostly Cloudy
6:55 AM 21.2 °F 10.1 °F 17.6 °F 86% 29.76 in 10.0 mi North 10.4 mph - N/A   Mostly Cloudy
7:14 AM 21.2 °F 9.5 °F 17.6 °F 86% 29.76 in 10.0 mi North 11.5 mph - N/A   Mostly Cloudy
7:34 AM 21.2 °F 8.3 °F 17.6 °F 86% 29.76 in 10.0 mi NNW 13.8 mph 17.3 mph N/A   Mostly Cloudy
7:54 AM 21.2 °F 9.5 °F 17.6 °F 86% 29.77 in 10.0 mi NNW 11.5 mph - N/A   Mostly Cloudy
8:34 AM 23.0 °F 11.1 °F 17.6 °F 80% 29.77 in 10.0 mi North 12.7 mph 20.7 mph N/A   Scattered Clouds
8:54 AM 23.0 °F 10.6 °F 17.6 °F 80% 29.78 in 10.0 mi North 13.8 mph - N/A   Scattered Clouds
9:15 AM 23.0 °F 11.1 °F 17.6 °F 80% 29.78 in 10.0 mi North 12.7 mph - N/A   Scattered Clouds
9:34 AM 23.0 °F 11.1 °F 17.6 °F 80% 29.79 in 10.0 mi North 12.7 mph - N/A   Scattered Clouds
9:55 AM 23.0 °F 12.4 °F 17.6 °F 80% 29.79 in 10.0 mi North 10.4 mph - N/A   Clear
10:14 AM 23.0 °F 11.7 °F 17.6 °F 80% 29.80 in 10.0 mi North 11.5 mph 16.1 mph N/A   Clear
10:34 AM 23.0 °F 11.1 °F 17.6 °F 80% 29.79 in 10.0 mi NNW 12.7 mph - N/A   Scattered Clouds
10:55 AM 23.0 °F 12.4 °F 17.6 °F 80% 29.79 in 10.0 mi North 10.4 mph - N/A   Scattered Clouds
11:14 AM 23.0 °F 10.6 °F 17.6 °F 80% 29.79 in 10.0 mi NNW 13.8 mph - N/A   Clear
11:34 AM 23.0 °F 12.4 °F 17.6 °F 80% 29.79 in 10.0 mi NNW 10.4 mph - N/A   Clear
11:55 AM 23.0 °F 13.1 °F 17.6 °F 80% 29.78 in 10.0 mi NNW 9.2 mph - N/A   Clear
12:34 PM 23.0 °F 13.9 °F 17.6 °F 80% 29.78 in 10.0 mi NNW 8.1 mph - N/A   Clear
12:55 PM 23.0 °F 12.4 °F 17.6 °F 80% 29.77 in 10.0 mi NW 10.4 mph - N/A   Clear
1:14 PM 23.0 °F 12.4 °F 17.6 °F 80% 29.77 in 10.0 mi NNW 10.4 mph - N/A   Clear
1:34 PM 23.0 °F 13.1 °F 17.6 °F 80% 29.76 in 10.0 mi NW 9.2 mph - N/A   Clear
1:55 PM 23.0 °F 13.9 °F 17.6 °F 80% 29.76 in 10.0 mi NW 8.1 mph - N/A   Clear
2:14 PM 23.0 °F 12.4 °F 17.6 °F 80% 29.77 in 10.0 mi NNW 10.4 mph - N/A   Clear
2:34 PM 23.0 °F 12.4 °F 17.6 °F 80% 29.77 in 10.0 mi NW 10.4 mph - N/A   Clear
2:55 PM 21.2 °F 10.9 °F 17.6 °F 86% 29.77 in 10.0 mi NNW 9.2 mph - N/A   Scattered Clouds
3:14 PM 21.2 °F 10.9 °F 17.6 °F 86% 29.77 in 10.0 mi NNW 9.2 mph - N/A   Mostly Cloudy
3:34 PM 21.2 °F 10.1 °F 17.6 °F 86% 29.78 in 10.0 mi North 10.4 mph - N/A   Mostly Cloudy
3:55 PM 21.2 °F 10.9 °F 17.6 °F 86% 29.78 in 10.0 mi NNW 9.2 mph - N/A   Mostly Cloudy
4:14 PM 21.2 °F 10.9 °F 17.6 °F 86% 29.79 in 10.0 mi NW 9.2 mph - N/A   Overcast
4:34 PM 21.2 °F 13.6 °F 17.6 °F 86% 29.79 in 10.0 mi NW 5.8 mph - N/A   Overcast
4:55 PM 21.2 °F 9.5 °F 17.6 °F 86% 29.79 in 10.0 mi NNW 11.5 mph - N/A   Overcast
5:14 PM 21.2 °F 11.7 °F 17.6 °F 86% 29.79 in 10.0 mi North 8.1 mph - N/A   Overcast
5:34 PM 21.2 °F 12.6 °F 17.6 °F 86% 29.79 in 10.0 mi NNW 6.9 mph - N/A   Overcast
5:55 PM 21.2 °F 12.6 °F 15.8 °F 80% 29.79 in 10.0 mi North 6.9 mph - N/A   Overcast
6:14 PM 21.2 °F 11.7 °F 15.8 °F 80% 29.80 in 10.0 mi North 8.1 mph - N/A   Overcast
6:34 PM 19.4 °F 11.5 °F 15.8 °F 86% 29.80 in 10.0 mi North 5.8 mph - N/A   Overcast
6:54 PM 19.4 °F 10.4 °F 15.8 °F 86% 29.81 in 10.0 mi NW 6.9 mph - N/A   Overcast
7:14 PM 19.4 °F 11.5 °F 15.8 °F 86% 29.81 in 10.0 mi NNW 5.8 mph - N/A   Overcast
7:35 PM 19.4 °F 9.5 °F 15.8 °F 86% 29.81 in 10.0 mi NNE 8.1 mph - N/A   Overcast
7:54 PM 19.4 °F 9.5 °F 15.8 °F 86% 29.81 in 10.0 mi NNE 8.1 mph - N/A   Overcast
8:14 PM 19.4 °F 14.3 °F 15.8 °F 86% 29.82 in 10.0 mi NNW 3.5 mph - N/A   Overcast
8:35 PM 19.4 °F - 15.8 °F 86% 29.82 in 10.0 mi Calm Calm - N/A   Overcast
8:54 PM 19.4 °F 14.3 °F 15.8 °F 86% 29.81 in 7.0 mi North 3.5 mph - N/A   Overcast
9:14 PM 19.4 °F 10.4 °F 15.8 °F 86% 29.81 in 5.0 mi NNW 6.9 mph - N/A   Haze
9:35 PM 19.4 °F - 15.8 °F 86% 29.80 in 5.0 mi Calm Calm - N/A   Haze
9:54 PM 19.4 °F 14.3 °F 15.8 °F 86% 29.80 in 7.0 mi NW 3.5 mph - N/A   Overcast
10:14 PM 19.4 °F 12.8 °F 15.8 °F 86% 29.80 in 5.0 mi WNW 4.6 mph - N/A   Overcast
10:35 PM 19.4 °F 10.4 °F 15.8 °F 86% 29.80 in 5.0 mi NNW 6.9 mph - N/A   Overcast
10:54 PM 19.4 °F 12.8 °F 15.8 °F 86% 29.80 in 7.0 mi NW 4.6 mph - N/A   Overcast
11:14 PM 19.4 °F 14.3 °F 15.8 °F 86% 29.80 in 5.0 mi NNW 3.5 mph - N/A   Overcast
11:35 PM 19.4 °F 14.3 °F 15.8 °F 86% 29.79 in 5.0 mi WNW 3.5 mph - N/A   Overcast
11:54 PM 19.4 °F 11.5 °F 15.8 °F 86% 29.79 in 5.0 mi NNW 5.8 mph - N/A   Overcast